Weather History for Fort Benning, GA

Change the Weather History Date:

Saturday, February 16, 2013

  Actual Average Record
Temperature  
Mean Temperature 40 °F -  
Max Temperature 51 °F 62 °F 80 °F (2001)
Min Temperature 27 °F 36 °F 21 °F (1997)
Degree Days  
Heating Degree Days 24    
Moisture  
Dew Point 29 °F    
Average Humidity 64    
Maximum Humidity 100    
Minimum Humidity 26    
Precipitation  
Precipitation 0.00 in - - ()
Sea Level Pressure  
Sea Level Pressure 30.05 in    
Wind  
Wind Speed 8 mph (NW)    
Max Wind Speed 23 mph    
Max Gust Speed 32 mph    
Visibility 10 miles    
Events Rain    
Averages and records for this station are not official NWS values.
T = Trace of Precipitation, MM = Missing Value Source: NWS Daily Summary

Daily Weather History Graph

Daily Weather History Graph

Search for Another Location

Airport:

Trip Planner

Search our weather history database for the weather conditions in past years. The results will help you decide how hot, cold, wet, or windy it might be!

Date:

Astronomy

Feb. 16, 2013 Rise Set
Actual Time 7:21 AM EST 6:27 PM EST
Civil Twilight 6:56 AM EST 6:52 PM EST
Nautical Twilight 6:27 AM EST 7:20 PM EST
Astronomical Twilight 5:59 AM EST 7:49 PM EST
Moon 10:58 AM EST (2/16) 12:02 AM EST (2/16)
Length of Visible Light 11h 55m
Length of Day
11h 05m
Waxing Crescent, 39% of the Moon is Illuminated
Feb 16
Waxing Crescent
Feb 17
First Quarter
Feb 25
Full
Mar 4
Last Quarter
Mar 11
New

Hourly Weather History & Observations

Time (EST) Temp. Windchill Dew Point Humidity Pressure Visibility Wind Dir Wind Speed Gust Speed Precip Events Conditions
12:58 AM 40.6 °F 36.0 °F 36.3 °F 85% 30.03 in 8.0 mi NW 6.9 mph - N/A   Clear
1:03 AM 42.8 °F 38.6 °F 37.4 °F 81% 30.02 in 10.0 mi WNW 6.9 mph - N/A   Clear
1:58 AM 40.5 °F - 37.0 °F 88% 30.02 in 10.0 mi Calm Calm - N/A   Clear
2:58 AM 36.7 °F - 36.1 °F 98% 30.02 in 10.0 mi NNW 2.3 mph - N/A   Clear
3:08 AM 37.4 °F - 35.6 °F 93% 30.01 in 8.0 mi NNW 2.3 mph - N/A   Clear
3:18 AM 37.4 °F - 37.4 °F 100% 30.00 in 10.0 mi Calm Calm - N/A   Scattered Clouds
3:58 AM 37.6 °F - 37.2 °F 99% 30.01 in 10.0 mi Calm Calm - N/A   Overcast
4:53 AM 39.2 °F - 37.4 °F 93% 29.99 in 9.0 mi Calm Calm - N/A   Overcast
4:58 AM 39.9 °F - 38.5 °F 95% 30.01 in 9.0 mi Calm Calm - N/A   Overcast
5:03 AM 39.2 °F - 37.4 °F 93% 30.00 in 10.0 mi Calm Calm - N/A   Mostly Cloudy
5:58 AM 41.0 °F - 39.7 °F 95% 30.02 in 10.0 mi Calm Calm - N/A   Overcast
6:39 AM 42.8 °F 38.6 °F 39.2 °F 87% 30.02 in 10.0 mi WNW 6.9 mph - N/A Rain Light Rain
6:49 AM 42.8 °F 40.1 °F 39.2 °F 87% 30.02 in 10.0 mi WNW 4.6 mph - N/A Rain Light Rain
6:54 AM 42.8 °F - 39.2 °F 87% 30.02 in 10.0 mi West 2.3 mph - N/A Rain Light Rain
6:58 AM 43.5 °F - 38.5 °F 82% 30.03 in 10.0 mi WSW 2.3 mph - 0.00 in Rain Light Rain
7:11 AM 42.8 °F 40.1 °F 39.2 °F 87% 30.03 in 10.0 mi West 4.6 mph - N/A   Partly Cloudy
7:12 AM 42.8 °F 40.1 °F 39.2 °F 87% 30.03 in 10.0 mi West 4.6 mph - N/A Rain Light Rain
7:23 AM 42.8 °F 39.3 °F 39.2 °F 87% 30.03 in 10.0 mi West 5.8 mph - N/A   Partly Cloudy
7:24 AM 42.8 °F 39.3 °F 39.2 °F 87% 30.03 in 10.0 mi West 5.8 mph - N/A Rain Light Rain
7:46 AM 42.8 °F 40.1 °F 39.2 °F 87% 30.04 in 10.0 mi WNW 4.6 mph - N/A   Clear
7:54 AM 42.8 °F 40.1 °F 39.2 °F 87% 30.03 in 10.0 mi WNW 4.6 mph - N/A Rain Light Rain
7:58 AM 42.8 °F 41.1 °F 39.7 °F 89% 30.04 in 10.0 mi West 3.5 mph - 0.00 in Rain Light Rain
8:09 AM 42.8 °F 40.1 °F 39.2 °F 87% 30.03 in 10.0 mi NW 4.6 mph - N/A   Partly Cloudy
8:58 AM 44.1 °F 37.7 °F 36.3 °F 74% 30.06 in 10.0 mi NNW 12.7 mph - 0.00 in   Mostly Cloudy
9:48 AM 44.6 °F 38.1 °F 32.0 °F 61% 30.05 in 10.0 mi NNW 13.8 mph - N/A   Mostly Cloudy
9:58 AM 45.3 °F 38.4 °F 32.4 °F 61% 30.06 in 10.0 mi NNW 16.1 mph - N/A   Mostly Cloudy
10:08 AM 44.6 °F 37.8 °F 32.0 °F 61% 30.05 in 10.0 mi NNW 15.0 mph - N/A   Scattered Clouds
10:18 AM 46.4 °F 39.8 °F 32.0 °F 57% 30.05 in 10.0 mi NNW 16.1 mph - N/A   Mostly Cloudy
10:58 AM 46.8 °F - 30.2 °F 53% 30.08 in 10.0 mi NW 12.7 mph 23.0 mph N/A   Overcast
11:43 AM 48.2 °F - 26.6 °F 43% 30.06 in 10.0 mi NW 15.0 mph 20.7 mph N/A   Mostly Cloudy
11:58 AM 48.0 °F - 24.4 °F 40% 30.07 in 10.0 mi NW 17.3 mph 21.9 mph N/A   Scattered Clouds
12:34 PM 50.0 °F - 21.2 °F 32% 30.05 in 10.0 mi West 16.1 mph 29.9 mph N/A   Mostly Cloudy
12:56 PM 51.8 °F - 19.4 °F 28% 30.04 in 10.0 mi NW 23.0 mph 28.8 mph N/A   Scattered Clouds
12:58 PM 50.9 °F - 20.3 °F 30% 30.05 in 10.0 mi NW 23.0 mph 28.8 mph N/A   Scattered Clouds
1:58 PM 50.4 °F - 17.2 °F 27% 30.04 in 10.0 mi WNW 21.9 mph 28.8 mph N/A   Partly Cloudy
2:09 PM 50.0 °F - 17.6 °F 28% 30.03 in 10.0 mi NNW 21.9 mph 28.8 mph N/A   Mostly Cloudy
2:16 PM 51.8 °F - 17.6 °F 26% 30.03 in 10.0 mi WNW 19.6 mph 28.8 mph N/A   Mostly Cloudy
2:17 PM 51.8 °F - 17.6 °F 26% 30.03 in 10.0 mi WNW 18.4 mph 28.8 mph N/A   Mostly Cloudy
2:58 PM 50.4 °F - 16.3 °F 26% 30.03 in 10.0 mi NW 21.9 mph 32.2 mph N/A   Mostly Cloudy
3:58 PM 47.8 °F - 14.2 °F 26% 30.05 in 10.0 mi NW 18.4 mph 29.9 mph N/A   Scattered Clouds
4:29 PM 46.4 °F 38.3 °F 14.0 °F 27% 30.04 in 10.0 mi NNW 23.0 mph 29.9 mph N/A   Scattered Clouds
4:58 PM 45.7 °F 38.3 °F 12.2 °F 26% 30.07 in 10.0 mi WNW 18.4 mph 32.2 mph N/A   Partly Cloudy
5:58 PM 44.2 °F 37.0 °F 11.8 °F 27% 30.09 in 10.0 mi NW 16.1 mph 25.3 mph N/A   Partly Cloudy
6:58 PM 40.5 °F 33.2 °F 12.7 °F 32% 30.12 in 10.0 mi NW 12.7 mph - N/A   Clear
7:58 PM 35.6 °F 28.6 °F 14.5 °F 42% 30.14 in 10.0 mi NW 9.2 mph - N/A   Clear
8:58 PM 30.9 °F 24.3 °F 16.3 °F 55% 30.17 in 10.0 mi WNW 6.9 mph - N/A   Clear
9:58 PM 34.5 °F 26.7 °F 17.2 °F 49% 30.19 in 10.0 mi NW 10.4 mph - N/A   Clear
10:58 PM 32.0 °F 25.6 °F 18.0 °F 56% 30.22 in 10.0 mi WNW 6.9 mph - N/A   Clear
11:58 PM 27.3 °F 19.9 °F 18.7 °F 70% 30.23 in 10.0 mi WNW 6.9 mph - N/A   Clear